Change the Weather History Date:

Wednesday, March 6, 2013

  Actual Average (KFSM) Record (KFSM)
Temperature  
Mean Temperature 42 °F 50 °F  
Max Temperature 51 °F 62 °F 85 °F (1956)
Min Temperature 32 °F 39 °F 17 °F (1943)
Degree Days  
Heating Degree Days 24 15  
Month to date heating degree days 95  
Since 1 July heating degree days 2768  
Cooling Degree Days 0 0  
Month to date cooling degree days 0  
Year to date cooling degree days 1  
Moisture  
Dew Point 26 °F    
Average Humidity 58    
Maximum Humidity 87    
Minimum Humidity 33    
Precipitation  
Precipitation 0.00 in 0.12 in 1.30 in (1995)
Month to date precipitation 0.68  
Year to date precipitation 6.25  
Sea Level Pressure  
Sea Level Pressure 30.36 in    
Wind  
Wind Speed 6 mph (North)    
Max Wind Speed 14 mph    
Max Gust Speed 20 mph    
Visibility 10 miles    
Events      
T = Trace of Precipitation, MM = Missing Value Source: NWS Daily Summary

Daily Weather History Graph

Daily Weather History Graph

Search for Another Location

Airport or City:

Trip Planner

Search our weather history database for the weather conditions in past years. The results will help you decide how hot, cold, wet, or windy it might be!

Date:

Astronomy

Mar. 06, 2013 Rise Set
Actual Time 6:41 AM CST 6:18 PM CST
Civil Twilight 6:15 AM CST 6:44 PM CST
Nautical Twilight 5:46 AM CST 7:13 PM CST
Astronomical Twilight 5:17 AM CST 7:42 PM CST
Moon 2:41 AM CST (3/6) 1:10 PM CST (3/6)
Length of Visible Light 12h 28m
Length of Day
11h 37m
Waning Crescent, 29% of the Moon is Illuminated
Mar 6
Waning Crescent
Mar 11
New
Mar 19
First Quarter
Mar 27
Full
Apr 2
Last Quarter

Hourly Weather History & Observations

Time (CST) Temp. Windchill Dew Point Humidity Pressure Visibility Wind Dir Wind Speed Gust Speed Precip Events Conditions
12:15 AM 41.0 °F 34.7 °F 26.6 °F 57% 30.36 in 10.0 mi NNW 10.4 mph - N/A   Clear
12:35 AM 41.0 °F 35.8 °F 26.6 °F 57% 30.36 in 10.0 mi NNW 8.1 mph - N/A   Clear
12:55 AM 39.2 °F 31.6 °F 26.6 °F 61% 30.36 in 10.0 mi NNW 12.7 mph 17.3 mph N/A   Clear
1:15 AM 37.4 °F 30.3 °F 26.6 °F 65% 30.37 in 10.0 mi North 10.4 mph - N/A   Clear
1:35 AM 37.4 °F 30.8 °F 26.6 °F 65% 30.38 in 10.0 mi NNW 9.2 mph - N/A   Clear
1:55 AM 37.4 °F 30.3 °F 26.6 °F 65% 30.38 in 10.0 mi North 10.4 mph - N/A   Clear
2:15 AM 37.4 °F 29.3 °F 24.8 °F 60% 30.38 in 10.0 mi NNW 12.7 mph 19.6 mph N/A   Clear
2:35 AM 37.4 °F 29.8 °F 24.8 °F 60% 30.38 in 10.0 mi NNW 11.5 mph 18.4 mph N/A   Clear
2:55 AM 37.4 °F 29.8 °F 24.8 °F 60% 30.38 in 10.0 mi NNW 11.5 mph - N/A   Clear
3:15 AM 35.6 °F 26.6 °F 23.0 °F 60% 30.38 in 10.0 mi North 13.8 mph 19.6 mph N/A   Clear
3:35 AM 35.6 °F 28.6 °F 26.6 °F 70% 30.39 in 10.0 mi North 9.2 mph - N/A   Clear
3:55 AM 33.8 °F 27.0 °F 26.6 °F 75% 30.39 in 10.0 mi North 8.1 mph - N/A   Clear
4:15 AM 33.8 °F 26.4 °F 23.0 °F 65% 30.40 in 10.0 mi NNW 9.2 mph - N/A   Clear
4:35 AM 33.8 °F 26.4 °F 23.0 °F 65% 30.41 in 10.0 mi North 9.2 mph - N/A   Clear
4:55 AM 33.8 °F 27.0 °F 21.2 °F 60% 30.41 in 10.0 mi NNW 8.1 mph - N/A   Clear
5:15 AM 33.8 °F 27.0 °F 21.2 °F 60% 30.41 in 10.0 mi NNW 8.1 mph - N/A   Clear
5:55 AM 33.8 °F 27.7 °F 21.2 °F 60% 30.42 in 10.0 mi NNW 6.9 mph - N/A   Clear
6:15 AM 33.8 °F 27.7 °F 23.0 °F 65% 30.42 in 10.0 mi North 6.9 mph - N/A   Clear
6:35 AM 32.0 °F 26.4 °F 21.2 °F 64% 30.43 in 10.0 mi North 5.8 mph - N/A   Clear
6:55 AM 32.0 °F 27.5 °F 21.2 °F 64% 30.42 in 10.0 mi North 4.6 mph - N/A   Clear
7:15 AM 32.0 °F 28.7 °F 23.0 °F 69% 30.43 in 10.0 mi NNE 3.5 mph - N/A   Clear
7:35 AM 33.8 °F - 23.0 °F 65% 30.44 in 10.0 mi Calm Calm - N/A   Clear
7:55 AM 35.6 °F 29.2 °F 24.8 °F 65% 30.44 in 10.0 mi North 8.1 mph - N/A   Clear
8:15 AM 35.6 °F 29.9 °F 23.0 °F 60% 30.45 in 10.0 mi North 6.9 mph - N/A   Clear
8:35 AM 35.6 °F 32.8 °F 23.0 °F 60% 30.45 in 10.0 mi North 3.5 mph - N/A   Clear
8:55 AM 35.6 °F 31.7 °F 23.0 °F 60% 30.45 in 10.0 mi North 4.6 mph - N/A   Clear
9:15 AM 35.6 °F 31.7 °F 23.0 °F 60% 30.45 in 10.0 mi NNE 4.6 mph - N/A   Clear
9:35 AM 37.4 °F - 23.0 °F 56% 30.45 in 10.0 mi Calm Calm - N/A   Clear
9:55 AM 37.4 °F 34.9 °F 23.0 °F 56% 30.45 in 10.0 mi North 3.5 mph - N/A   Clear
10:15 AM 37.4 °F - 23.0 °F 56% 30.45 in 10.0 mi Calm Calm - N/A   Scattered Clouds
10:35 AM 41.0 °F - 23.0 °F 49% 30.44 in 10.0 mi Calm Calm - N/A   Clear
10:55 AM 41.0 °F - 23.0 °F 49% 30.44 in 10.0 mi Calm Calm - N/A   Clear
11:15 AM 41.0 °F 39.0 °F 23.0 °F 49% 30.44 in 10.0 mi East 3.5 mph - N/A   Clear
11:35 AM 42.8 °F 40.1 °F 23.0 °F 46% 30.43 in 10.0 mi East 4.6 mph - N/A   Clear
11:55 AM 42.8 °F - 23.0 °F 46% 30.42 in 10.0 mi Calm Calm - N/A   Clear
12:15 PM 44.6 °F 42.2 °F 23.0 °F 43% 30.41 in 10.0 mi NE 4.6 mph - N/A   Clear
12:35 PM 46.4 °F - 26.6 °F 46% 30.41 in 10.0 mi Calm Calm - N/A   Clear
12:55 PM 46.4 °F 45.2 °F 26.6 °F 46% 30.39 in 10.0 mi NE 3.5 mph - N/A   Clear
1:15 PM 48.2 °F - 26.6 °F 43% 30.36 in 10.0 mi NNE 5.8 mph - N/A   Clear
1:35 PM 50.0 °F - 26.6 °F 40% 30.35 in 10.0 mi East 4.6 mph - N/A   Clear
1:55 PM 51.8 °F - 26.6 °F 38% 30.34 in 10.0 mi Calm Calm - N/A   Clear
2:15 PM 51.8 °F - 26.6 °F 38% 30.34 in 10.0 mi ENE 3.5 mph - N/A   Clear
2:35 PM 51.8 °F - 26.6 °F 38% 30.34 in 10.0 mi Calm Calm - N/A   Clear
2:55 PM 51.8 °F - 26.6 °F 38% 30.34 in 10.0 mi Calm Calm - N/A   Clear
3:15 PM 51.8 °F - 28.4 °F 41% 30.33 in 10.0 mi NE 4.6 mph - N/A   Clear
3:35 PM 51.8 °F - 26.6 °F 38% 30.33 in 10.0 mi NE 3.5 mph - N/A   Clear
4:15 PM 51.8 °F - 26.6 °F 38% 30.32 in 10.0 mi East 3.5 mph - N/A   Clear
4:35 PM 51.8 °F - 24.8 °F 35% 30.32 in 10.0 mi Calm Calm - N/A   Clear
4:55 PM 51.8 °F - 23.0 °F 33% 30.30 in 10.0 mi ENE 3.5 mph - N/A   Clear
5:15 PM 51.8 °F - 23.0 °F 33% 30.29 in 10.0 mi ENE 3.5 mph - N/A   Clear
5:35 PM 51.8 °F - 24.8 °F 35% 30.29 in 10.0 mi Calm Calm - N/A   Clear
5:55 PM 51.8 °F - 26.6 °F 38% 30.29 in 10.0 mi Calm Calm - N/A   Clear
6:15 PM 48.2 °F - 26.6 °F 43% 30.28 in 10.0 mi Calm Calm - N/A   Clear
6:35 PM 44.6 °F - 32.0 °F 61% 30.29 in 10.0 mi Calm Calm - N/A   Clear
6:55 PM 44.6 °F - 32.0 °F 61% 30.28 in 10.0 mi Calm Calm - N/A   Clear
7:15 PM 42.8 °F - 32.0 °F 66% 30.29 in 10.0 mi Calm Calm - N/A   Clear
7:35 PM 42.8 °F - 30.2 °F 61% 30.28 in 10.0 mi Calm Calm - N/A   Clear
7:55 PM 41.0 °F - 32.0 °F 70% 30.27 in 10.0 mi Calm Calm - N/A   Clear
8:15 PM 41.0 °F - 32.0 °F 70% 30.27 in 10.0 mi Calm Calm - N/A   Clear
8:35 PM 41.0 °F - 32.0 °F 70% 30.26 in 10.0 mi Calm Calm - N/A   Clear
8:55 PM 39.2 °F - 32.0 °F 75% 30.27 in 10.0 mi Calm Calm - N/A   Clear
9:15 PM 41.0 °F - 32.0 °F 70% 30.27 in 10.0 mi Calm Calm - N/A   Clear
9:35 PM 41.0 °F - 32.0 °F 70% 30.26 in 10.0 mi Calm Calm - N/A   Clear
9:55 PM 37.4 °F - 32.0 °F 81% 30.27 in 10.0 mi Calm Calm - N/A   Clear
10:15 PM 37.4 °F - 32.0 °F 81% 30.27 in 10.0 mi Calm Calm - N/A   Clear
10:35 PM 37.4 °F - 33.8 °F 87% 30.26 in 10.0 mi Calm Calm - N/A   Clear
10:55 PM 37.4 °F - 32.0 °F 81% 30.26 in 10.0 mi Calm Calm - N/A   Clear
11:15 PM 37.4 °F - 32.0 °F 81% 30.25 in 10.0 mi Calm Calm - N/A   Clear
11:35 PM 37.4 °F - 33.8 °F 87% 30.25 in 10.0 mi Calm Calm - N/A   Clear
11:55 PM 37.4 °F - 33.8 °F 87% 30.25 in 10.0 mi Calm Calm - N/A   Clear